Regional Weather Roundup
Issued by NWS

Home | Current Version | Previous Version | Graphics & Text | Print | Product List | Glossary Off
Versions: 1 2 3 4 5 6 7 8 9 10 11 12 13 14 15 16 17 18 19 20 21 22 23 24 25 26 27 28 29 30 31 32 33 34 35 36 37 38 39 40 41 42 43 44 45 46 47 48 49 50

000
ASUS43 KMPX 230001
RWRMN
WEATHER ROUNDUP FOR MINNESOTA
NATIONAL WEATHER SERVICE TWIN CITIES/CHANHASSEN MN
700 PM CDT FRI AUG 22 2014


NOTE: "FAIR" INDICATES FEW OR NO CLOUDS BELOW 12,000 FEET WITH NO
SIGNIFICANT WEATHER AND/OR OBSTRUCTIONS TO VISIBILITY. N/A MEANS
CURRENT SKY AND/OR WEATHER CONDITIONS ARE NOT AVAILABLE.

MNZ060>063-068>070-230100-
   Twin Cities Metro

CITY           SKY/WX    TMP DP  RH WIND       PRES   REMARKS
TWIN CITIES    CLOUDY    76  68  76 N10       29.98S
6HR MIN TEMP:  74; 6HR MAX TEMP:  79;

ST PAUL        CLOUDY    76  67  73 N7        29.98S
CRYSTAL        CLOUDY    76  67  73 NE7       29.98S
BLAINE         PTSUNNY   75  72  88 N7        29.99S
LAKEVILLE      PTSUNNY   75  68  78 N9        29.98S
EDEN PRAIRIE   MOSUNNY   77  68  73 N6        29.97F
6HR MIN TEMP:  74; 6HR MAX TEMP:  79;

SOUTH ST PAUL  CLOUDY    76  68  75 N7        29.98S
LAKE ELMO      CLOUDY    73  70  88 N5        30.00S
$$
MNZ001>005-007-008-013>017-022>024-027-028-230100-
   Northwest Minnesota

CITY           SKY/WX    TMP DP  RH WIND       PRES   REMARKS
BEMIDJI        PTSUNNY   70  68  92 E5        30.02S
HALLOCK        PTSUNNY   70  63  78 N12       30.06R
ROSEAU         MOSUNNY   72  66  83 CALM      30.04S
WARROAD        PTSUNNY   72  66  83 N3        30.04S
THIEF RVR FALL CLOUDY    72  66  83 NW10      30.03R
CROOKSTON      CLOUDY    66  66 100 N15       30.04S
FOSSTON        PTSUNNY   72  66  83 CALM      30.03R
DETROIT LAKES  PTSUNNY   72  64  78 N10G16    30.04S
MOORHEAD       MOSUNNY   72  70  94 N13       30.03S
PARK RAPIDS    CLOUDY    74  68  81 NW6       30.02R
MAHNOMEN       CLOUDY    70  67  88 NW7       30.03R
$$
MNZ006-009>011-018-025>026-230100-
   North Central Minnesota

CITY           SKY/WX    TMP DP  RH WIND       PRES   REMARKS
BAUDETTE       CLOUDY    70  66  87 N7        30.03S
FLAG ISLAND    PTSUNNY   72  63  73 CALM      30.03R
INTL FALLS     MOSUNNY   72  65  78 E3        30.02S
6HR MIN TEMP:  71; 6HR MAX TEMP:  75;

WASKISH        CLOUDY    73  68  83 CALM      30.02R
BIG FORK       PTSUNNY   64  55  72 CALM      30.03S
LONGVILLE      CLOUDY    75  68  78 CALM      30.01S
GRAND RAPIDS   CLOUDY    73  66  78 CALM      30.02S
CRANE LAKE     PTSUNNY   70  66  88 CALM      30.05R
ORR            PTSUNNY   70  64  83 CALM      30.01R
COOK           PTSUNNY   73  66  78 CALM      30.03R
WALKER         CLOUDY    72  68  89 W6        30.02R
$$
MNZ012-019>021-037-230100-
   Northeast Minnesota

CITY           SKY/WX    TMP DP  RH WIND       PRES   REMARKS
DULUTH         CLOUDY    64  60  87 E9        30.04R
6HR MIN TEMP:  64; 6HR MAX TEMP:  67;

ELY            CLOUDY    70  64  83 NE5       30.04S
HIBBING        CLOUDY    73  67  81 SE5       30.02S
EVELETH        PTSUNNY   72  68  88 CALM      30.03S
DULUTH HARBOR  CLOUDY    63  61  94 N8        30.04S
TWO HARBORS    CLOUDY    63  59  88 E5        30.03R
SILVER BAY     MOCLDY    63  63 100 NE5       30.03R
GRAND MARAIS     N/A     64  61  90 NE6       30.03R
G MARAIS ARPRT CLOUDY    64  59  82 N5        30.08R
$$
MNZ029>031-032-039>041-046>048-054>057-064-230100-
   West Central Minnesota

CITY           SKY/WX    TMP DP  RH WIND       PRES   REMARKS
FERGUS FALLS   PTSUNNY   75  64  69 N9        30.00R
WHEATON        PTSUNNY   73  66  78 N8        30.03R
MORRIS         PTSUNNY   79  70  73 N8        29.99R
ALEXANDRIA     PTSUNNY   77  68  73 N9        30.01S
ELBOW LAKE     FAIR      75  69  82 N8        30.01R
WADENA         CLOUDY    75  66  73 N7        30.01R
GLENWOOD       MOSUNNY   79  68  69 CALM      30.00S
APPLETON       MOSUNNY   81  70  69 CALM      29.98R
BENSON         SUNNY     79  70  73 N5        29.98R
ORTONVILLE     MOSUNNY   77  70  78 N7        30.00R
MADISON        MOSUNNY   82  70  65 N5        29.98S
WILLMAR        FAIR      81  68  65 E6        29.99S
$$
MNZ033>034-036-042>043-049>051-058-059-230100-
   Central Minnesota

CITY           SKY/WX    TMP DP  RH WIND       PRES   REMARKS
ST CLOUD       MOSUNNY   79  68  69 NE5       29.98F
6HR MIN TEMP:  76; 6HR MAX TEMP:  80;

SAUK CENTRE    FAIR      78  68  70 NE6       29.99S
PAYNESVILLE    MOSUNNY   76  67  73 NE6       29.99S
AITKIN         PTSUNNY   75  68  78 CALM      30.00S
PINE RIVER     PTSUNNY   75  68  78 SE3       30.03F
BRAINERD       PTSUNNY   74  68  81 CALM      30.00S
STAPLES        PTSUNNY   75  66  73 CALM      30.01S
LONG PRAIRIE   FAIR      77  68  73 CALM      30.00S
LITTLE FALLS   MOSUNNY   75  64  69 CALM      29.99F
LITCHFIELD     SUNNY     79  72  78 NE6       29.99F
BUFFALO        SUNNY     77  68  73 NE5       29.99F
MAPLE LAKE     SUNNY     78  71  78 NE5       29.99F
$$
MNZ037-044-045-052-053-230100-
   East Central Minnesota

CITY           SKY/WX    TMP DP  RH WIND       PRES   REMARKS
PRINCETON      CLOUDY    75  70  83 NE3       30.00S
MORA           PTSUNNY   70  64  83 CALM      30.02S
CAMBRIDGE      PTSUNNY   75  64  69 CALM      29.99R
RUSH CITY      CLOUDY    73  67  83 N5        30.01R
MOOSE LAKE     CLOUDY    66  63  88 NE3       30.02R
HINCKLEY       CLOUDY    70  66  88 N7        30.01S
CLOQUET        CLOUDY    64  61  88 E7        30.04S
MCGREGOR       MOSUNNY   72  66  83 E5        30.02S
$$
MNZ071>073-080-081-089-090-097-098-230100-
   Southwest Minnesota

CITY           SKY/WX    TMP DP  RH WIND       PRES   REMARKS
MONTEVIDEO     MOSUNNY   82  70  65 CALM      29.98S
GRANITE FALLS  MOSUNNY   82  69  64 CALM      29.98S
CANBY          MOSUNNY   82  68  63 N3        30.00R
MARSHALL       PTSUNNY   81  68  65 NE6       29.97S
REDWOOD FALLS  SUNNY     82  69  64 N3        29.97S
OLIVIA         SUNNY     81  66  61 NE5       29.97S
PIPESTONE      PTSUNNY   81  66  61 CALM      30.00S
WINDOM         MOSUNNY   81  70  69 NE3       29.99S
WORTHINGTON      N/A     81  70  69 NE6       30.00F
JACKSON        MOSUNNY   81  68  65 NE8       29.99S
TRACY          MOSUNNY   80  72  76 CALM      29.99S
SLAYTON        PTSUNNY   79  70  72 CALM      30.00F
$$
MNZ065>067-074>077-082>085-091>093-230100-
   South Central Minnesota

CITY           SKY/WX    TMP DP  RH WIND       PRES   REMARKS
MANKATO        SUNNY     79  66  65 N9        29.97R
NEW ULM        SUNNY     81  70  69 N6        29.97S
ST JAMES       SUNNY     84  72  65 N3        29.98R
FAIRMONT       MOSUNNY   73  63  68 N6        29.97R
GLENCOE        SUNNY     79  68  68 NE3       29.97F
FARIBAULT      SUNNY     81  66  61 N6        29.98R
OWATONNA       MOSUNNY   81  70  69 N10       29.97R
WASECA         SUNNY     77  64  65 N6        29.99R
ALBERT LEA     MOSUNNY   81  70  69 N7        29.97R
$$
MNZ078>079-086>088-094>096-230100-
   Southeast Minnesota

CITY           SKY/WX    TMP DP  RH WIND       PRES   REMARKS
ROCHESTER      SUNNY     81  69  67 N8        29.98R
6HR MIN TEMP:  80; 6HR MAX TEMP:  84;

RED WING       SUNNY     79  68  69 N7        29.96R
STANTON        SUNNY     78  68  71 N8        29.96S
DODGE CENTER   SUNNY     79  72  78 N3        29.98R
WINONA         CLEAR     81  70  69 NW5       29.94S
AUSTIN         MOSUNNY   81  72  74 N5        29.97R
PRESTON        SUNNY     79  75  89 N6        29.97R
$$
ABBREVIATIONS USED IN REMARKS
   TC - TEMPERATURES IN CELSIUS
  WCI - WIND CHILL INDEX
   HX - HEAT INDEX
  VSB - VISIBILITY
$$



USA.gov is the U.S. government's official web portal to all federal, state and local government web resources and services.